(2015 WV12) |
Classification: Apollo [NEO] SPK-ID: 3735549 |
[ hide orbit diagram ]
For accurate long-term ephemerides, please instead use our Horizons system.This orbit viewer was implemented using two-body methods, and hence should not be used for determining accurate long-term trajectories (over several years or decades) or planetary encounter circumstances.
Orbital Elements at Epoch 2459000.5 (2020-May-31.0) TDB
Reference: JPL 8 (heliocentric ecliptic J2000)
Element | Value | Uncertainty (1-sigma) | Units |
e | .3294813014705747 | 0.00016947 | |
a | 1.434090357726332 | 0.00034459 | au |
q | .9615844002362578 | 1.2185e-05 | au |
i | 11.05209525115388 | 0.0042933 | deg |
node | 66.02755124170193 | 5.5231e-05 | deg |
peri | 329.6619486639642 | 0.00098043 | deg |
M | 238.8295897515824 | 0.34754 | deg |
tp | 2459211.633563649595 (2020-Dec-28.13356365) | 0.68168 | TDB |
period | 627.2825416537444 1.72 | 0.22609 0.000619 | d yr |
n | .5739040641094671 | 0.00020685 | deg/d |
Q | 1.906596315216405 | 0.00045813 | au |
|
| | Orbit Determination Parameters
Additional Information
|
[ show covariance matrix ]
[ show close-approach data ]
|